Weather History for Oxford, MS

Change the Weather History Date:

Tuesday, March 19, 2013

  Actual Average Record
Temperature  
Mean Temperature 46 °F -  
Max Temperature 59 °F 66 °F 85 °F (1982)
Min Temperature 32 °F 40 °F 19 °F (1981)
Degree Days  
Heating Degree Days 20    
Moisture  
Dew Point 31 °F    
Average Humidity 62    
Maximum Humidity 100    
Minimum Humidity 25    
Precipitation  
Precipitation 0.00 in - - ()
Sea Level Pressure  
Sea Level Pressure 30.13 in    
Wind  
Wind Speed 3 mph (NE)    
Max Wind Speed 12 mph    
Max Gust Speed 20 mph    
Visibility 8 miles    
Events      
Averages and records for this station are not official NWS values.
T = Trace of Precipitation, MM = Missing Value Source: NWS Daily Summary

Daily Weather History Graph

Daily Weather History Graph

Search for Another Location

Airport:

Trip Planner

Search our weather history database for the weather conditions in past years. The results will help you decide how hot, cold, wet, or windy it might be!

Date:

Astronomy

Mar. 19, 2013 Rise Set
Actual Time 7:02 AM CDT 7:09 PM CDT
Civil Twilight 6:37 AM CDT 7:34 PM CDT
Nautical Twilight 6:08 AM CDT 8:03 PM CDT
Astronomical Twilight 5:39 AM CDT 8:33 PM CDT
Moon 12:07 PM CDT (3/19) 1:42 AM CDT (3/19)
Length of Visible Light 12h 56m
Length of Day
12h 06m
Waxing Crescent, 50% of the Moon is Illuminated
Mar 19
Waxing Crescent
Mar 19
First Quarter
Mar 27
Full
Apr 2
Last Quarter
Apr 10
New

Hourly Weather History & Observations

Time (CDT) Temp. Windchill Dew Point Humidity Pressure Visibility Wind Dir Wind Speed Gust Speed Precip Events Conditions
12:15 AM 39.2 °F - 39.2 °F 100% 30.06 in 7.0 mi Calm Calm - N/A   Clear
12:35 AM 41.0 °F - 39.2 °F 93% 30.06 in 8.0 mi Calm Calm - N/A   Clear
12:55 AM 41.0 °F - 41.0 °F 100% 30.07 in 8.0 mi Calm Calm - N/A   Clear
1:15 AM 41.0 °F - 39.2 °F 93% 30.08 in 6.0 mi Calm Calm - N/A   Clear
1:35 AM 41.0 °F - 39.2 °F 93% 30.08 in 6.0 mi Calm Calm - N/A   Clear
1:55 AM 39.2 °F - 39.2 °F 100% 30.09 in 9.0 mi Calm Calm - N/A   Clear
2:15 AM 39.2 °F - 39.2 °F 100% 30.10 in 7.0 mi Calm Calm - N/A   Clear
2:35 AM 39.2 °F - 37.4 °F 93% 30.10 in 7.0 mi Calm Calm - N/A   Clear
2:55 AM 39.2 °F 37.0 °F 37.4 °F 93% 30.10 in 6.0 mi NE 3.5 mph - N/A   Clear
3:15 AM 39.2 °F - 37.4 °F 93% 30.10 in 4.0 mi Calm Calm - N/A   Clear
3:35 AM 37.4 °F - 37.4 °F 100% 30.09 in 5.0 mi Calm Calm - N/A   Clear
3:55 AM 37.4 °F - 35.6 °F 93% 30.07 in 4.0 mi Calm Calm - N/A   Clear
4:15 AM 37.4 °F - 35.6 °F 93% 30.06 in 5.0 mi Calm Calm - N/A   Clear
4:35 AM 37.4 °F - 37.4 °F 100% 30.06 in 10.0 mi Calm Calm - N/A   Clear
4:55 AM 35.6 °F - 35.6 °F 100% 30.06 in 10.0 mi Calm Calm - N/A   Clear
5:15 AM 35.6 °F - 33.8 °F 93% 30.07 in 8.0 mi Calm Calm - N/A   Clear
5:35 AM 35.6 °F - 33.8 °F 93% 30.07 in 5.0 mi Calm Calm - N/A   Clear
5:55 AM 35.6 °F - 33.8 °F 93% 30.08 in 9.0 mi Calm Calm - N/A   Clear
6:15 AM 33.8 °F - 32.0 °F 93% 30.09 in 8.0 mi Calm Calm - N/A   Clear
6:35 AM 32.0 °F - 32.0 °F 100% 30.09 in 7.0 mi Calm Calm - N/A   Clear
6:55 AM 32.0 °F - 32.0 °F 100% 30.08 in 7.0 mi Calm Calm - N/A   Clear
7:15 AM 33.8 °F - 32.0 °F 93% 30.09 in 6.0 mi Calm Calm - N/A   Clear
7:35 AM 33.8 °F - 32.0 °F 93% 30.10 in 7.0 mi Calm Calm - N/A   Clear
7:55 AM 35.6 °F - 33.8 °F 93% 30.12 in 9.0 mi Calm Calm - N/A   Clear
8:15 AM 37.4 °F - 35.6 °F 93% 30.13 in 7.0 mi Calm Calm - N/A   Clear
8:35 AM 39.2 °F - 39.2 °F 100% 30.13 in 7.0 mi Calm Calm - N/A   Clear
8:55 AM 42.8 °F - 41.0 °F 93% 30.14 in 8.0 mi Calm Calm - N/A   Clear
9:15 AM 46.4 °F 45.2 °F 42.8 °F 87% 30.15 in 9.0 mi NNE 3.5 mph - N/A   Clear
9:35 AM 46.4 °F 44.3 °F 41.0 °F 81% 30.16 in 8.0 mi NE 4.6 mph - N/A   Clear
9:55 AM 48.2 °F - 41.0 °F 76% 30.17 in 8.0 mi North 5.8 mph - N/A   Clear
10:15 AM 50.0 °F - 41.0 °F 71% 30.17 in 9.0 mi NNE 5.8 mph - N/A   Clear
10:35 AM 50.0 °F - 39.2 °F 66% 30.18 in 9.0 mi NE 8.1 mph - N/A   Clear
10:55 AM 53.6 °F - 39.2 °F 58% 30.19 in 10.0 mi ENE 5.8 mph - N/A   Clear
11:15 AM 53.6 °F - 35.6 °F 51% 30.20 in 9.0 mi NE 6.9 mph - N/A   Clear
11:35 AM 53.6 °F - 32.0 °F 44% 30.20 in 8.0 mi ENE 9.2 mph - N/A   Clear
11:55 AM 55.4 °F - 32.0 °F 41% 30.20 in 9.0 mi East 8.1 mph - N/A   Clear
12:15 PM 55.4 °F - 32.0 °F 41% 30.20 in 9.0 mi NW 3.5 mph - N/A   Clear
12:35 PM 57.2 °F - 32.0 °F 38% 30.20 in 9.0 mi NNE 4.6 mph - N/A   Clear
12:55 PM 57.2 °F - 28.4 °F 33% 30.19 in 9.0 mi East 8.1 mph - N/A   Partly Cloudy
1:15 PM 55.4 °F - 28.4 °F 36% 30.19 in 9.0 mi ENE 6.9 mph - N/A   Partly Cloudy
1:35 PM 57.2 °F - 28.4 °F 33% 30.19 in 10.0 mi NNE 3.5 mph - N/A   Clear
1:55 PM 57.2 °F - 26.6 °F 31% 30.18 in 9.0 mi North 5.8 mph - N/A   Partly Cloudy
2:35 PM 59.0 °F - 30.2 °F 34% 30.16 in 9.0 mi NNE 5.8 mph - N/A   Clear
2:55 PM 59.0 °F - 28.4 °F 31% 30.15 in 8.0 mi ENE 11.5 mph - N/A   Clear
3:15 PM 59.0 °F - 26.6 °F 29% 30.14 in 8.0 mi NNE 8.1 mph 19.6 mph N/A   Clear
3:35 PM 59.0 °F - 24.8 °F 27% 30.13 in 9.0 mi NE 9.2 mph - N/A   Clear
3:55 PM 59.0 °F - 23.0 °F 25% 30.12 in 10.0 mi NE 8.1 mph - N/A   Clear
4:15 PM 59.0 °F - 24.8 °F 27% 30.11 in 9.0 mi NE 8.1 mph - N/A   Clear
4:35 PM 59.0 °F - 23.0 °F 25% 30.11 in 10.0 mi ENE 11.5 mph - N/A   Clear
4:55 PM 59.0 °F - 23.0 °F 25% 30.11 in 9.0 mi NNE 8.1 mph - N/A   Clear
5:15 PM 57.2 °F - 21.2 °F 25% 30.11 in 10.0 mi NE 6.9 mph 16.1 mph N/A   Clear
5:35 PM 57.2 °F - 23.0 °F 27% 30.11 in 9.0 mi NE 9.2 mph - N/A   Clear
5:55 PM 57.2 °F - 21.2 °F 25% 30.11 in 9.0 mi NE 10.4 mph - N/A   Clear
6:15 PM 55.4 °F - 21.2 °F 26% 30.12 in 8.0 mi NNE 9.2 mph - N/A   Clear
6:35 PM 53.6 °F - 23.0 °F 30% 30.12 in 9.0 mi NNE 9.2 mph - N/A   Clear
6:55 PM 53.6 °F - 21.2 °F 28% 30.14 in 9.0 mi NNE 5.8 mph - N/A   Clear
7:15 PM 51.8 °F - 21.2 °F 30% 30.14 in 10.0 mi NNE 4.6 mph - N/A   Clear
7:35 PM 50.0 °F - 23.0 °F 35% 30.14 in 10.0 mi NNE 3.5 mph - N/A   Clear
7:55 PM 50.0 °F - 23.0 °F 35% 30.15 in 10.0 mi NNE 4.6 mph - N/A   Clear
8:35 PM 48.2 °F - 24.8 °F 40% 30.16 in 10.0 mi NE 3.5 mph - N/A   Clear
8:55 PM 48.2 °F - 24.8 °F 40% 30.14 in 10.0 mi NE 5.8 mph - N/A   Clear
9:15 PM 48.2 °F - 26.6 °F 43% 30.15 in 10.0 mi NE 6.9 mph - N/A   Clear
9:35 PM 48.2 °F - 26.6 °F 43% 30.16 in 10.0 mi NE 5.8 mph - N/A   Clear
9:55 PM 48.2 °F - 26.6 °F 43% 30.16 in 10.0 mi NE 4.6 mph - N/A   Clear
10:15 PM 46.4 °F 42.9 °F 26.6 °F 46% 30.17 in 10.0 mi NE 6.9 mph - N/A   Clear
10:35 PM 46.4 °F 43.5 °F 24.8 °F 43% 30.17 in 10.0 mi NNE 5.8 mph - N/A   Clear
10:55 PM 46.4 °F 43.5 °F 24.8 °F 43% 30.17 in 10.0 mi NNE 5.8 mph - N/A   Clear
11:15 PM 46.4 °F 43.5 °F 24.8 °F 43% 30.18 in 10.0 mi NNE 5.8 mph - N/A   Clear
11:35 PM 44.6 °F 42.2 °F 24.8 °F 46% 30.18 in 10.0 mi NNE 4.6 mph - N/A   Clear
11:55 PM 44.6 °F 42.2 °F 24.8 °F 46% 30.18 in 10.0 mi NE 4.6 mph - N/A   Clear